Weather History for Beaufort MCAS, SC

Change the Weather History Date:

Thursday, February 21, 2013

  Actual Average Record
Temperature  
Mean Temperature 50 °F -  
Max Temperature 64 °F 65 °F 71 °F (2014)
Min Temperature 37 °F 43 °F 55 °F (2014)
Degree Days  
Heating Degree Days 14    
Moisture  
Dew Point 40 °F    
Average Humidity 69    
Maximum Humidity 89    
Minimum Humidity 33    
Precipitation  
Precipitation 0.00 in - - ()
Sea Level Pressure  
Sea Level Pressure 30.13 in    
Wind  
Wind Speed 2 mph (SE)    
Max Wind Speed 9 mph    
Max Gust Speed -    
Visibility 10 miles    
Events      
Averages and records for this station are not official NWS values.
T = Trace of Precipitation, MM = Missing Value Source: NWS Daily Summary

Daily Weather History Graph

Daily Weather History Graph

Search for Another Location

Airport:

Trip Planner

Search our weather history database for the weather conditions in past years. The results will help you decide how hot, cold, wet, or windy it might be!

Date:

Astronomy

Feb. 21, 2013 Rise Set
Actual Time 6:59 AM EST 6:14 PM EST
Civil Twilight 6:34 AM EST 6:38 PM EST
Nautical Twilight 6:05 AM EST 7:07 PM EST
Astronomical Twilight 5:37 AM EST 7:36 PM EST
Moon 2:36 PM EST 3:53 AM EST
Length of Visible Light 12h 04m
Length of Day
11h 14m
Waxing Gibbous, 83% of the Moon is Illuminated
Feb 21
Waxing Gibbous
Feb 25
Full
Mar 4
Last Quarter
Mar 11
New
Mar 19
First Quarter

Hourly Weather History & Observations

Time (EST) Temp. Dew Point Humidity Pressure Visibility Wind Dir Wind Speed Gust Speed Precip Events Conditions
12:56 AM 42.1 °F 37.9 °F 85% 30.13 in 10.0 mi Calm Calm - N/A   Clear
1:56 AM 39.9 °F 36.0 °F 86% 30.12 in 10.0 mi Calm Calm - N/A   Clear
2:56 AM 39.0 °F 36.0 °F 89% 30.12 in 10.0 mi Calm Calm - N/A   Clear
3:56 AM 39.0 °F 35.1 °F 86% 30.11 in 10.0 mi Calm Calm - N/A   Clear
4:56 AM 37.9 °F 35.1 °F 89% 30.12 in 10.0 mi Calm Calm - N/A   Clear
5:56 AM 37.9 °F 35.1 °F 89% 30.12 in 10.0 mi Calm Calm - N/A   Clear
6:56 AM 37.9 °F 34.0 °F 86% 30.15 in 10.0 mi Calm Calm - N/A   Clear
7:56 AM 42.1 °F 37.9 °F 85% 30.17 in 6.0 mi Calm Calm - N/A   Mostly Cloudy
8:56 AM 48.9 °F 36.0 °F 61% 30.19 in 10.0 mi North 3.5 mph - N/A   Mostly Cloudy
9:56 AM 53.1 °F 37.0 °F 55% 30.19 in 10.0 mi Variable 3.5 mph - N/A   Mostly Cloudy
10:56 AM 57.0 °F 30.0 °F 36% 30.19 in 10.0 mi Calm Calm - N/A   Mostly Cloudy
11:56 AM 62.1 °F 34.0 °F 35% 30.18 in 10.0 mi SSE 6.9 mph - N/A   Mostly Cloudy
12:56 PM 64.0 °F 34.0 °F 33% 30.15 in 10.0 mi SSE 6.9 mph - N/A   Mostly Cloudy
1:56 PM 64.0 °F 37.0 °F 37% 30.12 in 10.0 mi East 5.8 mph - N/A   Mostly Cloudy
2:56 PM 64.0 °F 44.1 °F 48% 30.10 in 10.0 mi SSE 9.2 mph - N/A   Scattered Clouds
3:56 PM 61.0 °F 39.9 °F 46% 30.09 in 10.0 mi SSE 6.9 mph - N/A   Mostly Cloudy
4:56 PM 61.0 °F 42.1 °F 50% 30.10 in 10.0 mi SSE 6.9 mph - N/A   Clear
5:56 PM 57.0 °F 44.1 °F 62% 30.11 in 10.0 mi SE 6.9 mph - N/A   Clear
6:56 PM 54.0 °F 46.0 °F 75% 30.11 in 10.0 mi SE 6.9 mph - N/A   Clear
7:56 PM 53.1 °F 46.9 °F 80% 30.13 in 10.0 mi SE 4.6 mph - N/A   Clear
8:56 PM 51.1 °F 46.9 °F 86% 30.12 in 10.0 mi Calm Calm - N/A   Clear
9:56 PM 52.0 °F 48.9 °F 89% 30.14 in 10.0 mi Calm Calm - N/A   Clear
10:56 PM 54.0 °F 50.0 °F 86% 30.14 in 10.0 mi East 3.5 mph - N/A   Clear
11:56 PM 52.0 °F 48.9 °F 89% 30.13 in 10.0 mi ENE 4.6 mph - N/A   Clear